Flag for Canada Weather past 2 weeks in Iqaluit, Nunavut, Canada

-17 °F

Snow flurries. Clear.

Feels Like: -33 °F
Forecast: -17 / -14 °F
Wind: 7 mph from North

Location: Iqaluit

Current Time: Nov 28, 2015 at 1:35:19 AM

Latest Report: Nov 28, 2015 at 1:00 AM

Visibility: 15 mi

Pressure: 29.84 "Hg

Humidity: 69%

Dew point: -24 °F

Location of IqaluitLocation

Historic Weather in Iqaluit — Graph


Iqaluit temperature yesterday

Maximum temperature yesterday: 3 °F (at 12:00 AM)
Minimum temperature yesterday: -17 °F (at 11:00 PM)
Average temperature yesterday: -9 °F

Past Weeks' High & Low Weather Summary

High37 °F (Nov 20, 8:00 AM)100% (Nov 16, 7:00 PM)30.40 "Hg (Nov 16, 7:00 PM)
Low-17 °F (Nov 27, 11:00 PM)59% (Nov 24, 12:00 PM)29.31 "Hg (Nov 19, 3:00 PM)
Average15 °F80%29.92 "Hg
* Reported Nov 12 11:00 PM — Nov 27 11:00 PM, Iqaluit, Weather by CustomWeather, © 2015

Note: Actual official high and low records may vary slightly from our data, if they occured in-between our weather recording intervals... More about our weather records


Iqaluit weather history for previous 24 hours

Time TempWeatherWind HumidityBarometerVisibility
11:00 PM
Fri, Nov 27
-17 °FClear.5 mph69%29.84 "Hg15 mi
10:00 PM-15 °FClear.8 mph69%29.83 "Hg15 mi
9:00 PM-15 °FClear.9 mph69%29.84 "Hg15 mi
8:00 PM-15 °FPassing clouds.7 mph69%29.84 "Hg15 mi
7:00 PM-15 °FClear.9 mph76%29.84 "Hg15 mi
6:00 PM-13 °FPassing clouds.9 mph69%29.84 "Hg15 mi
5:00 PM-13 °FPassing clouds.10 mph69%29.83 "Hg15 mi
4:00 PM-9 °FLow level haze.15 mph64%29.82 "Hg15 mi
3:00 PM-11 °FLow level haze.13 mph76%29.82 "Hg30 mi
2:00 PM-11 °FLow level haze.13 mph76%29.81 "Hg25 mi
1:00 PM-9 °FLow level haze.16 mph70%29.82 "Hg25 mi
12:00 PM-9 °FPassing clouds.18 mph70%29.82 "Hg25 mi
11:00 AM-9 °FLow level haze.15 mph70%29.82 "Hg25 mi
10:00 AM-9 °FLow level haze.15 mph70%29.81 "Hg25 mi
9:00 AM-9 °FPassing clouds.9 mph70%29.82 "Hg25 mi
8:00 AM-11 °FPassing clouds.7 mph76%29.81 "Hg25 mi
7:00 AM-8 °FPassing clouds.12 mph70%29.81 "Hg15 mi
6:00 AM-6 °FClear.14 mph70%29.79 "Hg15 mi
5:00 AM-6 °FPassing clouds.12 mph70%29.79 "Hg15 mi
4:00 AM-4 °FPassing clouds.15 mph71%29.78 "Hg15 mi
3:00 AM-2 °FLight snow. Mostly cloudy.22 mph71%29.78 "Hg6 mi
2:00 AM0 °FSnow flurries. Mostly cloudy.22 mph78%29.75 "Hg10 mi
1:00 AM1 °FSnow flurries. Mostly cloudy.23 mph78%29.74 "Hg6 mi
Weather by CustomWeather, © 2015

See weather overviewHow to use our weather pages